Simultaneous Nadir Overpasses (SNOs) Predictions

Prediction of SNOs between GOES-16 and METOP-C Satellite Orbit:

Table of predicted SNOs for the next 14.0 days since TLE Epoch: 7/1/2023
Index Date Time (GOES-16) GOES-16 Lat,Lon METOP-C Lat,Lon Distance(km) Time Diff (sec)
1 07/02/2023 02:46:05 0.00, -75.20 -0.74, -78.59 386.00 80
2 07/03/2023 02:22:46 0.01, -75.20 0.39, -73.60 183.02 80
3 07/04/2023 14:44:16 -0.01, -75.21 0.67, -78.15 335.86 80
4 07/05/2023 14:20:57 -0.02, -75.21 -0.45, -73.16 233.49 80
5 07/07/2023 02:42:37 0.03, -75.22 -0.56, -77.76 290.18 80
6 07/08/2023 02:19:17 0.04, -75.22 0.57, -72.77 279.76 80
7 07/09/2023 14:40:49 -0.03, -75.25 0.44, -77.33 237.48 80
8 07/10/2023 14:17:29 -0.04, -75.26 -0.69, -72.34 333.04 80
9 07/12/2023 02:39:09 0.03, -75.28 -0.36, -76.93 188.76 80
10 07/13/2023 02:15:49 0.04, -75.30 0.78, -71.94 381.99 80
11 07/14/2023 14:37:20 -0.03, -75.33 0.24, -76.50 134.47 80
